This demonstration page uses our WeatherBlox Daily Observations layout. Learn more.

Left ArrowRight Arrow

Hourly Observations for May 17, 2020

Temp ( °F °C ) Dew Point ( °F °C ) Humidity (%) Winds ( mph kmh ) Pressure ( in mb ) Visibility ( mi km ) Precip ( " mm )
12:56 am 00:56 Mostly Cloudy 53 11.7 51 10.6 93 93 NNW 7 11 30.00 1016 10 16 0.00 0.00
1:56 am 01:56 Cloudy 53 11.7 50 10 89 89 W 7 11 30.01 1016 10 16 0.00 0.00
2:18 am 02:18 Cloudy 52 11 50 10 94 94 WNW 8 13 30.02 1017 10 16 0.00 0.00
2:51 am 02:51 Cloudy 52 11 48 9 88 88 NW 7 11 30.01 1016 10 16 0.00 0.00
2:56 am 02:56 Cloudy 51 10.6 49 9.4 92 92 NW 8 13 30.00 1016 10 16 0.00 0.00
3:05 am 03:05 Cloudy 52 11 48 9 88 88 NNW 7 11 30.01 1016 10 16 0.00 0.00
3:15 am 03:15 Cloudy 52 11 48 9 88 88 NW 7 11 30.01 1016 10 16 0.00 0.00
3:47 am 03:47 Cloudy 52 11 50 10 94 94 NNW 7 11 30.01 1016 10 16 0.00 0.00
3:56 am 03:56 Cloudy 52 11.1 50 10 93 93 NNW 7 11 29.99 1016 10 16 0.00 0.00
4:23 am 04:23 Cloudy 52 11 50 10 94 94 NNW 10 17 30.01 1016 10 16 0.00 0.00
4:36 am 04:36 Cloudy 52 11 50 10 94 94 NW 9 15 30.02 1017 10 16 0.00 0.00
4:56 am 04:56 Mostly Cloudy 51 10.6 49 9.4 92 92 WNW 9 15 30.01 1016 10 16 0.00 0.00
5:25 am 05:25 Cloudy 52 11 50 10 94 94 NW 10 17 30.02 1017 10 16 0.00 0.00
5:56 am 05:56 Mostly Cloudy 51 10.6 49 9.4 92 92 NW 10 17 30.01 1016 10 16 0.00 0.00
6:05 am 06:05 Mostly Cloudy 52 11 48 9 88 88 WNW 9 15 30.02 1017 10 16 0.00 0.00
6:56 am 06:56 Cloudy 52 11.1 49 9.4 89 89 NW 12 19 30.01 1016 10 16 0.00 0.00
7:56 am 07:56 Cloudy 52 11.1 47 8.3 83 83 NNW 15 24 30.04 1017 10 16 0.00 0.00
8:27 am 08:27 Cloudy 52 11 46 8 82 82 NNW 15 24 30.05 1018 10 16 0.00 0.00
8:35 am 08:35 Cloudy 52 11 46 8 82 82 NNW 16 26 30.05 1018 10 16 0.00 0.00
8:56 am 08:56 Cloudy 53 11.7 47 8.3 80 80 NNW 18 30 30.04 1017 10 16 0.00 0.00
9:56 am 09:56 Cloudy 54 12.2 47 8.3 77 77 NNW 16 26 30.06 1018 10 16 0.00 0.00
10:20 am 10:20 Cloudy 54 12 46 8 77 77 NNW 17 28 30.06 1018 10 16 0.00 0.00
10:56 am 10:56 Cloudy 55 12.8 47 8.3 74 74 NNW 18 30 30.05 1018 10 16 0.00 0.00
11:12 am 11:12 Mostly Cloudy 57 14 46 8 67 67 N 21 33 30.03 1017 10 16 0.00 0.00
11:32 am 11:32 Mostly Cloudy 61 16 48 9 63 63 N 20 31 30.02 1017 10 16 0.00 0.00
11:53 am 11:53 Cloudy 57 14 46 8 67 67 N 20 31 30.03 1017 10 16 0.00 0.00
11:56 am 11:56 Mostly Cloudy 58 14.4 46 7.8 65 65 N 17 28 30.05 1018 10 16 0.00 0.00
12:56 pm 12:56 Cloudy 59 15 46 7.8 62 62 NNW 14 22 30.04 1017 10 16 0.00 0.00
1:56 pm 13:56 Cloudy 60 15.6 47 8.3 62 62 NNW 14 22 30.04 1017 10 16 0.00 0.00
2:56 pm 14:56 Cloudy 60 15.6 47 8.3 62 62 NNW 14 22 30.02 1017 10 16 0.00 0.00
3:56 pm 15:56 Cloudy 63 17.2 47 8.3 56 56 N 15 24 30.00 1016 10 16 0.00 0.00
4:56 pm 16:56 Cloudy 63 17.2 47 8.3 56 56 NNW 16 26 29.99 1016 10 16 0.00 0.00
5:56 pm 17:56 Cloudy 62 16.7 47 8.3 58 58 N 17 28 30.00 1016 10 16 0.00 0.00
6:56 pm 18:56 Cloudy 60 15.6 47 8.3 62 62 N 15 24 30.01 1016 10 16 0.00 0.00
7:56 pm 19:56 Cloudy 60 15.6 48 8.9 65 65 N 12 19 30.02 1017 10 16 0.00 0.00
8:56 pm 20:56 Cloudy 59 15 49 9.4 69 69 N 12 19 30.03 1017 10 16 0.00 0.00
9:56 pm 21:56 Clear 55 12.8 49 9.4 80 80 N 8 13 30.04 1017 10 16 0.00 0.00
10:56 pm 22:56 Clear 52 11.1 48 8.9 86 86 NW 6 9 30.06 1018 10 16 0.00 0.00
11:56 pm 23:56 Clear 51 10.6 47 8.3 86 86 NNW 8 13 30.05 1018 10 16 0.00 0.00

Powered by AerisWeather